Location: Edinburgh
(55.9500°N, 3.1600°W)
Time: 07:06:04
(UTC+01:00)

Envisat - Pass Details

Date: 10 October 2017
Orbit: 764 x 766 km, 98.2° (Epoch: 22 October)

Event Time Altitude Azimuth Distance (km) Brightness Sun altitude
Exits shadow 19:26:49 - 121° (ESE) 2,466 5.1 -9.6°
Reaches altitude 10° 19:27:17 10° 119° (ESE) 2,305 4.9 -9.6°
Maximum altitude 19:31:42 31° 58° (ENE) 1,324 3.8 -10.2°
Drops below altitude 10° 19:36:08 10° 358° (N) 2,317 5.6 -10.9°
Sets 19:38:39 0° 348° (NNW) 3,247 6.5 -11.2°
